Location: Bratislava
(0.0000°N, 17.1167°E)
Time: 04:03:30
(UTC+01:00)

Feng Yun 1-1 Rocket - Pass Details

Date: 24 January 2021
Orbit: 830 x 933 km, 99.2° (Epoch: 06 March)

Event Time Altitude Azimuth Distance (km) Brightness Sun altitude
Rises 18:26:06 0° 163° (SSE) 3,375 7.4 -5.3°
Reaches altitude 10° 18:28:28 10° 161° (SSE) 2,436 6.6 -5.8°
Maximum altitude 18:33:49 74° 77° (ENE) 865 4.1 -7.1°
Drops below altitude 10° 18:39:11 10° 353° (N) 2,439 6.5 -8.4°
Sets 18:41:33 0° 351° (N) 3,379 7.2 -8.9°
